Home   Weather   Nagoya   Past weeks

Flag for Japan Past Weather in Nagoya, Japan — Yesterday and Last 2 Weeks

Now
46 °F

Partly sunny.


Feels Like: 46 °F
Forecast: 42 / 57 °F
Wind: 2 mph from North

Location: Nagoya Airport

Current Time: Feb 22, 2017 at 3:24:36 pm

Latest Report: Feb 22, 2017 at 3:00 pm


Visibility: N/A

Pressure: 30.15 "Hg

Humidity: 53%

Dew Point: 30 °F

Location of NagoyaLocation

Past Weather in Nagoya — Graph

°F

Nagoya Temperature Yesterday

Maximum temperature yesterday: 43 °F (at 12:30 am)
Minimum temperature yesterday: 36 °F (at 11:30 pm)
Average temperature yesterday: 41 °F

High & Low Weather Summary for the Past Weeks

 TemperatureHumidityPressure
High54 °F (Feb 16, 1:00 pm)88% (Feb 17, 8:00 pm)30.39 "Hg (Feb 17, 8:00 pm)
Low34 °F (Feb 11, 4:00 am)38% (Feb 16, 1:00 pm)29.47 "Hg (Feb 10, 3:30 am)
Average42 °F61%30.03 "Hg
* Reported Feb 7 2:00 pm — Feb 22 2:00 pm, Nagoya, Weather by CustomWeather, © 2017

Note: Actual official high and low records may vary slightly from our data, if they occured in-between our weather recording intervals... More about our weather records

Advertising

Nagoya Weather History for the Previous 24 Hours

Scroll right to see more
 ConditionsComfort  
Time TempWeatherWind HumidityBarometerVisibility
2:00 pm
Wed, Feb 22
46 °FPartly sunny.6 mph43%30.18 "HgN/A
1:30 pm45 °FBroken clouds.3 mph46%30.21 "HgN/A
1:00 pm45 °FPartly sunny.7 mph39%30.21 "HgN/A
12:30 pm45 °FBroken clouds.10 mph42%30.24 "HgN/A
12:00 pm45 °FPartly sunny.12 mph46%30.27 "HgN/A
11:30 am43 °FBroken clouds.10 mph46%30.27 "HgN/A
11:00 am43 °FBroken clouds.10 mph46%30.30 "HgN/A
10:30 am43 °FBroken clouds.10 mph49%30.30 "HgN/A
10:00 am41 °FPartly sunny.9 mph49%30.30 "HgN/A
9:30 am41 °FBroken clouds.10 mph42%30.33 "HgN/A
9:00 am41 °FScattered clouds.10 mph45%30.33 "HgN/A
8:30 am39 °FPartly sunny.7 mph48%30.33 "HgN/A
8:00 am37 °FPassing clouds.7 mph52%30.30 "HgN/A
7:30 am37 °FPassing clouds.6 mph52%30.33 "HgN/A
7:00 am36 °FPassing clouds.5 mph56%30.33 "HgN/A
6:30 am34 °FPassing clouds.5 mph60%30.30 "HgN/A
6:00 am36 °FPartly cloudy.5 mph52%30.33 "HgN/A
5:30 am36 °FClear.7 mph52%30.30 "Hg10 mi
5:00 am36 °FClear.9 mph56%30.30 "Hg10 mi
4:30 am34 °FClear.7 mph60%30.30 "Hg10 mi
4:00 am34 °FClear.7 mph56%30.30 "Hg10 mi
3:30 am34 °FClear.8 mph56%30.30 "Hg10 mi
3:00 am36 °FClear.13 mph56%30.30 "Hg10 mi
2:30 am36 °FClear.18 mph56%30.27 "Hg10 mi
2:00 am37 °FClear.18 mph52%30.30 "Hg10 mi
1:30 am39 °FClear.21 mph52%30.30 "Hg10 mi
1:00 am39 °FClear.21 mph52%30.33 "Hg10 mi
12:30 am37 °FClear.17 mph52%30.33 "Hg10 mi
12:00 am36 °FPassing clouds.17 mph56%30.33 "HgN/A
11:30 pm
Tue, Feb 21
36 °FPassing clouds.17 mph52%30.33 "HgN/A
11:00 pm37 °FPassing clouds.16 mph52%30.33 "HgN/A
10:30 pm39 °FPassing clouds.22 mph48%30.36 "HgN/A
10:00 pm39 °FPassing clouds.25 mph56%30.36 "HgN/A
9:30 pm39 °FPassing clouds.24 mph56%30.33 "HgN/A
9:00 pm39 °FPassing clouds.24 mph52%30.33 "HgN/A
8:30 pm39 °FPassing clouds.29 mph56%30.33 "HgN/A
8:00 pm41 °FPassing clouds.30 mph57%30.33 "HgN/A
7:30 pm41 °FPassing clouds.29 mph57%30.30 "HgN/A
7:00 pm41 °FPassing clouds.30 mph53%30.30 "HgN/A
6:30 pm41 °FPassing clouds.31 mph53%30.30 "HgN/A
6:00 pm41 °FPassing clouds.32 mph57%30.27 "HgN/A
5:30 pm41 °FPassing clouds.35 mph53%30.27 "HgN/A
5:00 pm43 °FPassing clouds.37 mph53%30.24 "HgN/A
4:30 pm43 °FPassing clouds.35 mph49%30.24 "HgN/A
4:00 pm43 °FPassing clouds.31 mph53%30.24 "HgN/A
3:30 pm43 °FPassing clouds.35 mph53%30.21 "HgN/A
3:00 pm43 °FPassing clouds.35 mph49%30.21 "HgN/A
Weather by CustomWeather, © 2017

See weather overviewHow to use our weather pages